#timestamp,LO_Frequency,Hit 
1499760015.2,286045341.1,N
1499760035.0,286045341.2,N
1499760036.0,286045341.2,N
1499760055.8,286045341.8,N
1499760075.6,286045341.8,N
1499760095.5,286045341.6,N
1499760115.3,286045341.2,N
1499760135.1,286045338.9,N
1499760155.9,286045341.4,N
1499760175.7,286045339.0,N
1499760195.5,286045341.3,N
1499760215.4,286045341.4,N
1499760235.2,286045341.9,N
1499760255.1,286045341.6,N
1499760256.0,286045341.6,N
1499760275.8,286045341.1,N
1499760295.6,286045341.9,N
1499760315.5,286045341.9,N
1499760335.3,286045341.8,N
1499760355.1,286045339.4,N
1499760375.9,286045339.3,N
1499760395.7,286045340.8,N
1499760415.6,286045341.7,N
1499760435.4,286045341.9,N
1499760455.2,286045341.9,N
1499760475.1,286045339.5,N
1499760476.0,286045339.5,N
1499760495.8,286045339.3,N
1499760515.6,286045339.3,N
1499760535.5,286045339.0,N
1499760555.3,286045341.3,N
1499760575.2,286045341.6,N
1499760595.9,286045339.1,N
1499760615.7,286045339.2,N
1499760635.6,286045341.9,N
1499760655.4,286045341.4,N
1499760675.2,286045341.3,N
1499760695.1,286045339.3,N
1499760696.0,286045339.3,N
1499760715.8,286045339.3,N
1499760735.7,286045341.6,N
1499760755.5,286045339.2,N
1499760775.3,286045339.3,N
1499760795.2,286045338.9,N
1499760815.0,286045338.9,N
1499760815.9,286045338.9,N
1499760835.7,286045339.4,N
1499760855.6,286045341.3,N
1499760875.4,286045341.4,N
1499760895.3,286045341.8,N
1499760915.1,286045342.0,N
1499760916.0,286045342.0,N
1499760935.8,286045341.2,N
1499760955.7,286045341.6,N
1499760975.5,286045341.1,N
1499760995.3,286045342.0,N
1499761015.2,286045342.0,N
1499761035.0,286045341.6,N
1499761035.9,286045341.6,N
1499761055.8,286045341.6,N
1499761075.6,286045341.2,N
1499761095.4,286045339.0,N
1499761115.3,286045339.2,N
1499761135.1,286045339.4,N
1499761155.9,286045341.9,N
1499761175.7,286045339.3,N
1499761195.5,286045338.9,N
1499761215.4,286045339.6,N
1499761235.2,286045339.6,N
1499761255.0,286045340.1,N
1499761255.9,286045340.1,N
1499761275.8,286045337.6,N
1499761295.6,286045337.4,N
1499761315.5,286045337.6,N
1499761335.3,286045337.8,N
1499761355.1,286045339.3,N
1499761375.9,286045339.9,N
1499761395.7,286045340.2,N
1499761415.5,286045339.8,N
1499761435.4,286045337.4,N
1499761455.2,286045340.3,N
1499761475.1,286045339.3,N
1499761476.0,286045339.3,N
1499761495.8,286045337.8,N
1499761515.6,286045337.6,N
1499761535.5,286045338.6,N
1499761555.3,286045338.6,N
1499761575.1,286045339.8,N
1499761595.9,286045339.4,N
1499761615.7,286045341.8,N
1499761635.6,286045339.2,N
1499761655.4,286045339.1,N
1499761675.2,286045339.2,N
1499761695.1,286045340.0,N
1499761696.0,286045340.0,N
1499761715.8,286045339.4,N
1499761735.6,286045340.8,N
1499761755.5,286045343.6,N
1499761775.3,286045341.3,N
1499761795.2,286045339.4,N
1499761815.9,286045339.3,N
1499761835.7,286045339.2,N
1499761855.6,286045340.1,N
1499761875.4,286045339.0,N
1499761895.2,286045341.7,N
1499761915.1,286045341.5,N
1499761916.0,286045341.5,N
1499761935.8,286045340.9,N
1499761955.7,286045343.6,N
1499761975.5,286045338.9,N
1499761995.3,286045341.3,N
1499762015.2,286045341.3,N
1499762035.0,286045339.1,N
1499762035.9,286045339.1,N
1499762055.8,286045342.0,N
1499762075.6,286045339.0,N
1499762095.4,286045338.9,N
1499762115.3,286045341.6,N
1499762135.1,286045338.9,N
1499762155.8,286045340.7,N
1499762175.7,286045340.9,N
1499762195.5,286045339.7,N
1499762215.4,286045341.6,N
1499762235.2,286045341.4,N
1499762255.0,286045341.6,N
1499762255.9,286045341.6,N
1499762275.8,286045341.5,N
1499762295.6,286045339.5,N
1499762315.4,286045341.4,N
1499762335.3,286045341.7,N
1499762355.1,286045341.2,N
1499762375.9,286045338.9,N
1499762395.7,286045341.3,N
1499762415.5,286045341.4,N
1499762435.4,286045347.9,N
1499762455.2,286045339.2,N
1499762475.0,286045339.4,N
1499762475.9,286045339.4,N
1499762495.8,286045341.7,N
1499762515.6,286045341.1,N
1499762535.5,286045343.6,N
1499762555.3,286045340.5,N
1499762575.1,286045340.9,N
1499762595.9,286045340.6,N
1499762615.7,286045340.9,N
1499762635.5,286045341.8,N
1499762655.4,286045340.7,N
1499762675.2,286045341.3,N
1499762695.1,286045341.2,N
1499762696.0,286045341.2,N
1499762715.8,286045340.8,N
1499762735.6,286045341.9,N
1499762755.5,286045341.8,N
1499762775.3,286045339.8,N
1499762795.1,286045339.8,N
1499762815.9,286045339.3,N
1499762835.7,286045342.0,N
1499762855.6,286045341.2,N
1499762875.4,286045340.8,N
1499762895.2,286045341.2,N
1499762915.1,286045343.6,N
1499762916.0,286045343.6,N
1499762935.8,286045340.8,N
1499762955.6,286045341.3,N
1499762975.5,286045340.7,N
1499762995.3,286045340.6,N
1499763015.2,286045341.0,N
1499763035.9,286045341.0,N
1499763055.7,286045343.1,N
1499763075.6,286045342.8,N
1499763095.4,286045342.9,N
1499763115.2,286045340.7,N
1499763135.1,286045343.0,N
1499763136.0,286045343.0,N
1499763155.8,286045341.0,N
1499763175.7,286045343.1,N
1499763195.5,286045343.1,N
1499763215.3,286045341.0,N
1499763235.2,286045343.8,N
1499763255.0,286045342.9,N
1499763255.9,286045342.9,N
1499763275.7,286045342.9,N
1499763295.6,286045343.3,N
1499763315.4,286045342.1,N
1499763335.3,286045342.8,N
1499763355.1,286045342.7,N
1499763356.0,286045342.7,N
1499763375.8,286045343.1,N
1499763395.7,286045342.3,N
1499763415.5,286045342.2,N
1499763435.3,286045342.5,N
1499763455.2,286045345.1,N
1499763475.0,286045344.7,N
1499763475.9,286045344.7,N
1499763495.8,286045344.0,N
1499763515.6,286045344.3,Y
1499763535.4,286047006.5,N
1499763555.3,286047006.3,N
1499763575.1,286047006.3,N
1499763625.9,286047007.3,Y
